Location: ?????
(38.3715°N, 23.0573°E)
Time: 02:32:24
(UTC+00:00)

Cosmos 2016 Rocket - Pass Details

Date: 03 August 2024
Orbit: 946 x 1000 km, 83.0° (Epoch: 10 September)

Event Time Altitude Azimuth Distance (km) Brightness Sun altitude
Exits shadow 21:26:17 62° 34° (NE) 1,102 4.3 -32.2°
Drops below altitude 10° 21:31:29 10° 10° (N) 2,727 7.0 -32.5°
Sets 21:33:59 0° 9° (N) 3,670 7.9 -32.7°
